This demonstration page uses our WeatherBlox Daily Observations layout. Learn more.

Left ArrowRight Arrow

39.12711, -84.51439

Hourly Observations for June 6, 2018

Temp ( °F °C ) Dew Point ( °F °C ) Humidity (%) Winds ( mph kmh ) Pressure ( in mb ) Visibility ( mi km ) Precip ( " mm )
12:53 am 00:53 Partly Cloudy 63 17.2 63 17.2 100 100 N N/A 29.83 1010 10 16 N/A
1:53 am 01:53 Mostly Cloudy 63 17.2 62 16.7 97 97 N N/A 29.83 1010 10 16 N/A
2:53 am 02:53 Mostly Cloudy 64 17.8 63 17.2 96 96 NNE 5 7 29.83 1010 10 16 N/A
3:53 am 03:53 Cloudy 65 18.3 58 14.4 78 78 N 7 11 29.85 1011 10 16 N/A
4:53 am 04:53 Cloudy 62 16.7 60 15.6 93 93 NNE 9 15 29.86 1011 9 14 N/A
5:53 am 05:53 Mostly Clear 60 15.6 57 13.9 90 90 NNE 7 11 29.89 1012 9 14 N/A
6:53 am 06:53 Mostly Sunny 58 14.4 55 12.8 90 90 NE 7 11 29.91 1013 10 16 N/A
7:53 am 07:53 Mostly Sunny 59 15 53 11.7 81 81 NE 10 17 29.94 1014 10 16 N/A
8:53 am 08:53 Sunny 62 16.7 53 11.7 73 73 ENE 9 15 29.97 1015 10 16 N/A
9:53 am 09:53 Sunny 64 17.8 52 11.1 65 65 ENE 12 19 29.99 1016 10 16 N/A
10:53 am 10:53 Sunny 66 18.9 52 11.1 61 61 ENE 9 15 29.99 1016 10 16 N/A
11:53 am 11:53 Sunny 69 20.6 53 11.7 57 57 NE 7 11 29.98 1015 10 16 N/A
12:53 pm 12:53 Sunny 71 21.7 53 11.7 53 53 NE 9 15 29.98 1015 10 16 N/A
1:53 pm 13:53 Sunny 73 22.8 53 11.7 50 50 NNE 12 19 29.99 1016 10 16 N/A
2:53 pm 14:53 Sunny 74 23.3 52 11.1 46 46 NNE 7 11 29.96 1014 10 16 N/A
3:53 pm 15:53 Sunny 74 23.3 52 11.1 46 46 N N/A 29.95 1014 10 16 N/A
4:53 pm 16:53 Sunny 75 23.9 52 11.1 45 45 VRB 3 6 29.95 1014 10 16 N/A
5:53 pm 17:53 Sunny 75 23.9 54 12.2 48 48 NE 6 9 29.94 1014 10 16 N/A
6:53 pm 18:53 Sunny 75 23.9 54 12.2 48 48 ENE 8 13 29.93 1014 10 16 N/A
7:53 pm 19:53 Sunny 73 22.8 55 12.8 53 53 NE 3 6 29.94 1014 10 16 N/A
8:53 pm 20:53 Sunny 66 18.9 57 13.9 73 73 ESE 5 7 29.95 1014 10 16 N/A
9:53 pm 21:53 Clear 64 17.8 57 13.9 78 78 N N/A 29.96 1015 10 16 N/A
10:53 pm 22:53 Clear 60 15.6 56 13.3 86 86 N N/A 29.99 1016 10 16 N/A
11:53 pm 23:53 Clear 58 14.4 55 12.8 90 90 N N/A 29.99 1016 10 16 N/A

Powered by AerisWeather